Location: Cerro Alto Campground
(35.4250°N, 120.7383°W)
Time: 01:25:38
(UTC-08:00)

Daily predictions for brighter satellites

Satellite Brightness Start Highest point End
(mag) Time Altitude Azimuth Time Altitude Azimuth Time Altitude Azimuth
NOSS 3-4 (A) 4.1 04:02:09 67° ESE 04:02:09 67° ESE 04:08:53 10° SE
NOSS 3-4 (C) 4.1 04:02:11 67° ESE 04:02:11 67° ESE 04:08:59 10° SE
Cosmos 1634 Rocket 4.2 04:19:24 68° SE 04:19:24 68° SE 04:25:01 10° S
Cosmos 1656 4.0 04:29:11 59° SE 04:29:11 59° SE 04:33:41 10° SSE
Lacrosse 5 rocket 2.9 04:32:40 37° ENE 04:32:40 37° ENE 04:36:13 10° ESE
Cosmos 2369 4.0 04:33:47 61° SSE 04:33:47 61° SSE 04:38:25 10° SSE
Cosmos 2278 3.8 04:35:30 68° SSE 04:35:30 68° SSE 04:40:24 10° SSE
USA 267 4.4 04:36:09 10° NNE 04:40:08 28° N 04:40:08 28° N
SJ 16-02 1.5 04:54:57 70° SSE 04:54:57 70° SSE 04:58:52 10° SSE
Cosmos 2151 Rocket 4.0 04:50:56 10° S 04:55:14 59° E 04:59:34 10° NNE
Cosmos 2082 Rocket 3.4 05:00:33 27° N 05:00:33 27° N 05:03:19 10° N
Cosmos 1697 Rocket 2.5 04:59:34 47° NNW 05:01:17 88° WSW 05:06:52 10° SSE
Landsat 4 3.9 05:00:52 10° SSE 05:04:35 67° ENE 05:04:51 64° NE
IDEFIX/ARIANE 42P 3.4 04:59:46 10° NNE 05:04:51 52° E 05:09:55 10° S
CZ-4C R/B 2.6 05:01:36 10° SSW 05:06:31 58° ESE 05:12:03 10° NE
Cosmos 1300 Rocket 4.5 05:03:09 10° SSE 05:07:16 47° E 05:11:25 10° NNE
SeaSat 1 4.3 05:03:13 10° N 05:04:22 16° N 05:04:22 16° N
Cosmos 783 Rocket 4.4 05:06:12 37° SW 05:08:09 62° WNW 05:13:25 10° N
Cosmos 1833 Rocket 4.1 05:11:08 22° NNW 05:11:08 22° NNW 05:13:27 10° N
Milstar 3 Cent rocket 4.3 05:06:22 23° WSW 05:10:44 34° SSW 05:24:04 10° SE
USA 234 3.4 05:07:47 10° SE 05:14:17 73° NE 05:18:21 25° NW
Okean-O 2.5 05:11:34 10° NNE 05:16:02 88° ESE 05:20:27 10° SSW
Cosmos 1125 Rocket 3.6 05:16:17 46° W 05:16:44 48° WSW 05:21:41 10° S
Cosmos 1536 Rocket 3.9 05:13:12 14° N 05:16:54 64° E 05:21:13 10° SSE
SL-24 R/B - RUBIN 2 4.3 05:19:26 35° SW 05:19:26 35° SW 05:22:46 10° S
COSMO-SKYMED 1 2.6 05:15:58 10° SSE 05:20:18 78° ENE 05:23:41 16° N
USA 116 4.3 05:16:22 10° S 05:21:21 57° W 05:22:56 38° NW
OAO 2 Rocket 3.6 05:21:22 39° WSW 05:23:07 59° SSW 05:28:14 10° ESE
Cosmos 2279 Rocket 4.1 05:24:08 14° NNW 05:29:15 48° W 05:35:09 10° SSW
Cosmos 1536 2.8 05:26:58 10° SSW 05:30:58 60° W 05:34:58 10° N
Okean 1 Rocket 3.4 05:32:58 10° S 05:37:16 66° E 05:41:37 10° NNE
CZ-2C R/B 2.4 05:32:40 10° NNE 05:37:33 81° ESE 05:42:13 10° S
Cosmos 1980 Rocket 2.1 05:36:06 16° NNW 05:40:42 71° WSW 05:46:20 10° SSE
Cosmos 1538 Rocket 3.9 05:38:20 10° SSW 05:43:29 69° WNW 05:48:45 10° NNE
Cosmos 1515 4.4 05:43:05 10° N 05:46:51 55° E 05:50:36 10° SSE
Meteor 1-11 Rocket 4.3 05:45:04 10° SW 05:50:32 38° WNW 05:55:59 10° N
Meteor 2-4 Rocket 4.0 05:51:52 10° NNW 05:56:59 44° W 06:02:13 10° SSW
RESURS DK-1 2.8 06:03:33 14° NW 06:06:44 41° WSW 06:10:37 10° S
GEOS 3 Rocket 3.7 06:02:15 10° NNE 06:07:33 59° NW 06:12:47 10° SW
Cosmos 1484 Rocket 3.0 06:06:13 10° NNE 06:10:07 72° E 06:13:55 10° S
EO 1 Del DPAF 4.3 06:07:41 10° SSW 06:10:53 25° W 06:13:55 11° NW
Lacrosse 5 rocket 2.8 06:08:24 15° WNW 06:11:01 24° WSW 06:14:36 10° S
CZ-4 R/B 2.6 06:10:53 10° NNE 06:14:56 48° E 06:19:01 10° S
Cosmos 2285 Rocket 4.2 06:08:45 10° SSW 06:15:05 81° ESE 06:21:25 10° NNE
BREEZE-M DEB (TANK) 3.8 06:12:44 13° NW 06:15:56 77° NNE 06:25:09 10° ESE
SL-16 R/B 2.4 06:11:18 10° NNW 06:17:00 76° ENE 06:22:39 10° SSE
Cosmos 1743 4.0 06:14:09 10° SSE 06:17:46 44° E 06:21:24 10° NNE
APEX 3.0 06:18:18 10° SSW 06:21:19 77° ESE 06:25:02 10° NNE
SJ-12 4.3 06:19:13 10° N 06:23:01 39° WNW 06:26:49 10° SW
Cosmos 2322 Rocket 2.3 06:18:55 10° NNW 06:24:37 86° ENE 06:30:19 10° SSE
BREEZE-M DEB (TANK) 3.0 06:23:16 10° W 06:25:25 31° NNW 06:28:48 10° NE
Cosmos 1437 Rocket 4.5 06:24:54 10° WSW 06:27:03 14° WNW 06:29:11 10° NW
Cosmos 389 Rocket 3.4 06:24:24 10° S 06:27:58 55° E 06:31:31 10° NNE
SJ-7 4.4 06:25:32 10° N 06:29:32 61° WNW 06:33:34 10° SSW
Okean 2 3.7 06:27:46 10° NNW 06:31:40 44° W 06:35:34 10° SSW
Okean 1-7 Rocket 3.6 06:27:19 10° NNW 06:31:49 66° W 06:36:19 10° S
CSL-04 Rocket 3.7 06:31:04 10° N 06:36:36 71° WNW 06:42:05 10° SSW
Cosmos 1455 Rocket 3.6 06:32:17 10° S 06:36:39 65° E 06:41:05 10° NNE
Cosmos 1544 Rocket 3.8 06:36:04 10° S 06:40:31 80° E 06:44:59 10° N
